Theta_e
309 311 312 313 315 314 313 311 311 311 311 314 315 316 318 319 314 316 325 327 329 330 327 327 327 325 324 323 322 322 321 321 320 319 319 318 317 317 317 317 318 318 318 318 317 317 316 316 316 316 315 314 314 313 313 311 309 308 307 307 307 306 306 306 305 304 303 303 303 303 302 302 301 301 300 300 300 300 300 299 299 299 299 299 299 300 300
313 314 314 316 318 319 318 316 314 313 312 314 315 315 318 319 318 322 327 328 328 327 326 326 326 325 324 322 321 321 320 320 319 318 318 317 317 316 316 316 317 317 317 317 317 316 315 316 316 315 314 313 313 313 311 309 308 307 307 306 305 304 304 304 303 302 302 302 301 301 300 300 300 300 299 299 299 299 299 298 299 298 299 299 299 299 299
314 315 315 316 317 320 321 319 317 315 311 312 312 314 318 318 319 324 327 328 329 326 325 326 325 324 323 321 321 320 319 319 319 318 318 317 315 315 316 315 316 316 316 316 316 315 315 315 315 315 314 313 313 311 309 308 307 307 306 304 303 303 302 301 301 301 301 300 300 300 299 299 299 299 299 298 298 298 298 298 298 298 298 298 298 298 298
315 316 315 316 317 318 319 321 319 315 312 313 314 316 318 317 319 325 325 326 327 324 324 325 324 323 322 320 320 319 319 319 318 318 317 315 315 315 315 314 315 315 316 315 315 315 315 315 315 314 314 313 311 309 307 306 306 305 304 303 302 301 301 300 300 300 300 299 299 299 298 298 298 298 298 298 298 297 297 297 297 297 297 297 298 298 298
314 316 315 317 318 317 317 319 319 316 317 319 317 318 319 318 320 324 321 321 325 324 323 323 322 322 321 320 320 319 318 318 318 317 316 315 315 315 314 314 315 315 316 315 315 315 314 314 314 313 312 312 309 307 306 305 304 303 302 301 301 300 299 299 299 299 299 298 298 298 298 298 298 298 297 297 297 297 297 297 297 297 297 297 297 297 297
314 317 317 317 317 317 317 316 315 315 318 319 317 318 319 319 321 322 321 323 325 323 322 323 322 321 321 320 320 319 318 318 317 317 316 315 315 315 314 315 315 315 316 315 314 314 313 313 312 311 310 309 307 305 304 304 303 302 301 300 299 299 298 298 298 298 298 297 297 297 297 297 297 297 297 297 296 296 296 296 296 296 296 296 297 297 297
314 316 316 316 316 317 317 315 314 315 315 315 316 317 317 318 319 320 322 323 323 323 323 323 322 322 321 320 320 319 318 318 317 316 315 315 316 315 315 316 316 316 315 314 313 313 312 311 311 310 308 307 306 304 303 303 301 300 299 299 298 298 297 297 297 297 297 297 297 297 297 297 297 297 296 296 296 296 296 296 296 296 296 296 296 296 296
314 316 314 315 317 316 316 316 315 315 316 316 317 317 317 317 316 318 322 322 322 323 323 322 321 321 320 319 319 319 318 318 319 318 317 316 316 316 316 316 316 315 314 314 313 312 311 310 310 309 307 306 305 304 302 301 299 299 298 298 297 297 297 297 297 296 296 296 296 296 296 296 296 296 296 296 296 296 296 295 295 295 295 296 296 296 295
313 317 316 315 317 318 318 319 318 316 318 318 318 317 319 318 316 318 321 322 322 322 321 319 319 318 318 317 317 317 318 318 319 319 318 316 315 315 316 315 315 314 314 313 312 311 310 310 309 308 306 305 304 302 301 299 298 298 297 297 297 296 296 296 296 296 296 296 296 295 295 295 295 295 295 295 295 295 295 295 295 295 295 295 295 295 295
312 316 317 315 316 317 319 320 318 317 318 318 317 318 320 319 317 318 321 321 321 320 318 318 318 317 318 318 316 316 317 316 316 316 315 314 313 314 315 314 314 313 313 312 311 310 310 309 307 306 305 304 303 301 300 298 298 297 297 296 296 296 296 296 295 295 295 295 295 295 295 295 295 295 295 295 295 295 295 295 295 295 295 295 295 294 294
313 316 316 315 316 318 318 317 316 316 316 316 316 317 320 320 318 319 320 320 319 318 317 317 317 318 320 319 316 315 315 315 314 313 312 312 312 313 314 314 313 312 311 311 310 309 309 307 306 305 305 303 301 300 298 297 297 296 296 296 295 295 295 295 295 295 295 294 294 294 294 294 294 294 295 295 295 294 294 294 294 294 294 294 294 294 294
314 315 315 314 315 317 317 315 315 315 315 315 317 318 319 320 319 320 320 320 319 318 318 318 319 320 321 319 316 314 314 313 313 313 313 312 313 313 313 313 312 311 310 309 309 308 307 306 305 304 303 301 300 299 297 297 296 296 295 295 295 295 294 294 294 294 294 294 294 294 294 294 294 294 294 294 294 294 294 294 294 294 294 294 293 294 293
314 315 315 314 314 316 315 314 315 315 315 316 318 318 317 318 320 320 320 320 320 318 318 319 320 320 319 318 315 313 313 312 311 312 313 313 314 314 313 312 311 310 309 309 308 308 307 306 304 303 301 300 299 298 297 296 295 295 294 294 294 294 294 294 294 294 294 294 294 294 294 294 294 294 293 293 293 293 293 293 293 293 293 293 293 293 293
314 314 315 315 315 315 314 314 314 315 317 320 319 315 313 316 320 320 319 320 320 318 319 319 318 316 317 317 314 312 312 311 311 311 312 312 313 312 311 311 310 309 309 308 308 307 305 305 303 301 300 300 299 297 296 295 295 294 294 294 294 294 294 294 294 294 294 293 293 293 293 293 293 293 293 293 293 293 293 293 293 293 293 293 293 293 293
313 314 315 316 316 315 314 315 315 315 317 318 316 313 313 316 320 320 319 319 319 318 318 317 315 315 316 315 312 311 311 311 310 310 311 312 312 311 310 310 309 309 308 307 307 305 304 303 301 300 300 300 298 296 296 295 294 294 294 294 294 294 294 294 293 293 293 293 293 293 292 292 293 292 292 293 293 293 293 293 293 293 293 293 293 293 293
314 316 317 316 316 315 314 316 316 316 315 314 314 314 316 318 318 319 319 319 318 318 317 314 313 314 313 312 310 310 310 311 310 311 311 311 311 310 310 310 309 308 308 306 306 305 304 302 301 300 300 299 297 296 295 294 294 294 294 294 294 294 294 294 293 293 293 292 292 292 292 292 292 292 292 293 293 293 293 293 293 293 293 293 293 293 293
314 315 316 314 311 311 311 312 312 313 314 314 314 316 317 318 318 318 318 318 318 317 315 313 313 312 311 310 309 309 310 310 311 311 311 311 311 310 310 309 308 307 307 306 305 304 302 301 301 300 300 299 297 295 294 294 294 294 294 294 294 294 294 294 293 293 293 292 292 292 292 293 293 293 293 293 293 293 293 293 293 293 293 292 292 292 292
313 312 312 310 309 310 310 310 311 312 314 315 315 315 317 317 317 317 317 317 316 315 314 313 311 310 310 309 308 309 310 310 311 311 311 310 310 310 309 308 307 307 307 306 305 303 301 301 300 300 300 298 296 295 294 294 294 294 294 294 294 294 294 294 293 293 293 293 293 293 293 293 293 293 293 293 293 293 293 293 293 293 293 292 292 292 292
315 315 312 308 308 309 309 311 312 312 313 314 314 315 316 316 316 316 316 316 315 313 313 313 311 309 309 309 308 308 310 310 310 310 310 310 310 310 309 308 307 307 306 305 304 303 301 301 300 300 298 297 295 294 294 295 294 294 294 294 294 294 294 294 294 293 293 293 293 293 293 293 294 294 294 293 293 293 293 293 293 293 293 292 292 291 291
315 315 310 307 307 307 308 311 312 311 312 314 314 315 316 316 315 316 315 315 314 313 313 314 312 309 309 309 308 308 309 310 310 310 310 310 309 308 308 307 307 306 306 305 303 302 301 301 300 299 297 296 295 295 295 295 295 295 294 294 294 294 294 294 294 294 294 294 294 294 294 294 294 294 294 294 294 294 293 293 293 293 293 293 292 291 291
313 312 309 308 309 310 309 310 312 311 312 313 314 314 315 315 315 315 313 313 314 313 314 314 312 309 308 309 310 309 309 309 310 310 310 309 308 308 307 307 306 306 305 304 303 302 301 300 299 298 296 296 295 296 295 295 295 295 295 294 294 294 294 294 294 294 294 294 294 294 294 294 294 294 294 294 294 294 294 293 293 293 293 293 293 292 292
315 314 312 311 313 314 312 311 312 312 312 313 314 314 314 314 314 314 313 312 313 314 314 314 313 311 308 309 310 310 310 310 310 310 309 308 308 307 307 306 306 305 305 304 303 302 301 299 298 297 296 296 296 296 296 296 295 295 295 295 295 295 295 294 294 295 295 295 295 295 295 295 295 295 294 294 294 294 294 294 294 294 293 293 293 293 292
314 313 311 310 312 313 311 310 311 312 311 313 314 313 313 314 314 314 314 312 311 312 313 314 315 313 310 308 309 310 310 310 310 309 309 308 307 307 306 306 305 305 304 303 302 302 300 298 297 297 297 296 296 296 296 296 296 295 295 295 295 295 295 295 295 295 295 295 295 295 295 295 295 295 295 295 295 295 295 295 295 295 294 294 293 293 293
311 309 309 309 310 310 309 310 311 311 311 312 313 313 313 313 313 313 314 313 312 311 311 312 314 314 311 309 309 309 309 309 309 309 308 308 307 306 306 305 305 304 304 303 302 301 300 298 297 298 298 297 297 296 296 296 296 296 295 295 295 295 295 295 295 295 295 295 295 295 295 295 295 295 296 296 295 295 295 295 295 295 295 295 294 294 293
310 309 309 309 309 309 309 309 310 310 311 312 312 312 312 312 312 312 313 313 313 312 310 309 310 312 311 309 309 309 309 308 308 308 308 307 307 306 305 305 305 304 303 302 302 301 299 298 298 298 298 298 298 297 297 296 296 296 296 295 295 295 295 295 295 295 295 295 295 295 295 295 295 295 295 296 296 296 296 296 296 296 295 295 295 294 294
309 309 309 309 308 308 309 309 309 310 311 311 312 312 312 311 312 311 312 313 313 312 310 308 307 309 310 310 309 309 308 307 307 307 307 306 306 305 305 305 304 304 303 302 301 300 299 298 298 298 298 298 298 298 298 297 296 296 296 296 296 296 296 296 295 295 295 295 295 295 295 295 295 295 295 295 296 296 296 296 296 296 296 295 295 295 294
309 309 309 309 308 308 308 309 309 309 310 310 311 311 311 311 311 310 311 312 311 311 310 309 307 306 307 307 308 308 307 307 307 306 306 306 305 304 304 304 304 303 303 302 301 300 299 298 298 298 298 298 298 299 298 297 297 296 297 296 296 296 296 296 296 295 295 295 296 296 296 296 296 295 295 295 295 296 296 296 296 296 296 296 295 295 294
308 309 309 309 309 308 308 308 309 309 309 310 310 310 310 310 310 309 309 309 309 309 308 308 307 307 306 305 305 306 307 307 307 305 304 304 303 302 301 302 302 302 302 301 300 299 299 298 299 299 298 298 298 298 298 297 297 296 297 297 296 297 297 296 296 296 295 295 296 296 296 296 296 296 295 295 295 295 295 295 295 295 296 296 295 295 294
308 309 309 309 309 308 308 308 308 308 308 309 309 309 309 309 309 308 308 307 307 307 306 306 307 307 306 305 306 306 307 306 305 303 303 304 303 301 300 300 300 300 300 300 299 299 298 298 299 298 298 297 297 297 296 297 297 296 297 297 297 297 297 297 296 296 296 295 296 296 296 297 296 296 295 295 295 295 295 294 294 295 295 295 295 295 295
308 308 309 308 308 308 308 307 307 307 307 308 308 308 308 308 308 307 307 307 307 306 306 305 305 305 305 306 307 307 307 305 303 303 303 304 303 301 299 299 299 299 299 298 298 298 298 298 298 298 298 297 297 297 297 297 297 297 297 297 297 297 297 297 297 297 296 296 296 296 296 297 296 296 295 295 295 295 295 294 294 294 294 294 294 295 295
307 307 308 308 307 307 307 306 306 306 307 307 307 307 307 307 307 306 306 306 306 306 306 305 305 304 305 306 306 307 306 304 303 304 304 303 302 300 299 299 299 299 298 298 298 298 298 298 298 298 298 298 298 297 297 297 297 297 297 297 297 297 297 297 297 297 297 296 296 296 296 296 296 296 295 295 295 295 295 295 295 294 293 293 294 294 294
307 306 306 306 306 306 306 306 306 306 306 306 307 307 307 307 307 306 306 305 305 305 305 305 305 305 305 305 305 305 304 304 304 304 303 302 300 300 300 300 300 299 299 299 299 298 298 298 298 298 298 298 298 298 298 298 297 297 297 297 297 297 297 297 297 297 297 297 296 296 296 296 296 296 296 295 295 295 295 295 295 295 294 293 293 293 293
307 306 306 306 306 306 305 305 305 306 306 306 307 307 306 307 307 306 306 306 305 305 305 305 305 305 305 305 305 305 304 304 304 303 302 301 300 300 300 300 300 300 299 299 298 298 298 298 298 298 298 298 298 298 298 298 298 297 298 298 297 297 297 297 297 297 297 297 297 296 296 296 296 296 296 295 295 295 294 294 295 295 294 294 293 292 292
307 307 307 307 307 307 306 305 305 306 306 306 306 307 306 307 307 307 307 306 305 305 305 305 305 305 305 305 305 304 304 304 303 302 302 301 301 301 300 300 300 299 299 298 298 298 298 297 297 297 297 298 298 298 297 297 297 297 298 298 297 297 297 297 297 297 297 297 297 296 296 296 296 296 296 295 295 294 294 294 294 294 294 294 293 292 291
307 307 307 307 307 307 307 306 305 305 305 305 306 306 306 307 307 307 307 307 306 306 305 305 305 305 305 305 305 305 304 303 303 302 302 302 301 301 301 300 299 299 298 298 298 298 298 297 297 297 297 298 298 297 297 297 297 297 298 297 297 297 297 297 296 296 296 296 296 296 296 295 295 295 295 295 294 294 294 294 294 294 294 294 293 292 291
307 307 307 307 307 307 307 307 306 306 306 306 306 306 306 307 307 307 307 307 306 306 305 305 305 305 305 305 305 304 304 303 303 303 302 301 301 302 301 300 299 298 298 298 298 298 298 298 298 297 298 298 297 297 297 297 297 297 297 297 297 297 297 296 296 296 296 296 296 296 295 295 294 295 295 295 294 294 294 293 293 293 293 293 293 292 291
307 307 307 307 306 306 306 306 306 306 306 306 306 306 306 306 306 307 307 306 306 306 305 305 305 305 305 305 304 303 303 303 303 302 301 301 301 301 301 299 299 299 299 299 298 298 299 299 298 298 298 298 298 298 297 298 298 297 297 297 297 297 297 296 296 296 295 295 295 295 295 294 294 295 295 295 295 294 294 294 293 292 292 292 292 291 291
306 307 307 307 306 306 306 306 306 306 306 306 306 306 306 306 306 306 306 306 306 306 305 305 305 305 305 304 303 303 303 303 302 301 301 300 300 300 300 299 299 299 299 299 298 298 298 299 299 298 298 298 298 298 298 298 298 298 298 297 297 297 297 296 296 296 295 295 295 295 295 295 295 295 295 295 295 295 295 295 294 293 292 292 291 291 291
306 306 306 306 306 306 305 305 306 306 306 306 306 305 305 306 306 306 305 305 305 305 305 304 304 304 304 304 304 303 303 302 301 300 300 300 300 299 299 299 299 299 299 299 299 298 298 299 299 298 298 298 298 298 298 298 298 298 298 298 298 297 297 297 296 296 295 295 294 295 295 295 295 295 295 295 295 295 295 295 295 294 294 293 292 291 291
306 306 306 306 306 305 305 305 305 305 306 306 306 305 305 305 305 305 305 305 304 304 304 304 303 303 304 304 304 303 303 302 301 300 300 300 299 299 299 299 299 299 299 299 299 299 299 299 298 298 298 298 298 298 298 298 298 298 298 298 298 298 297 297 296 296 296 295 295 295 295 296 295 295 295 295 295 295 295 295 295 294 294 294 293 293 292
306 306 306 305 305 305 305 305 305 305 305 305 305 305 305 305 305 305 305 305 304 304 304 304 304 304 304 304 303 302 302 301 301 300 300 300 300 299 299 299 299 299 299 299 299 299 299 299 299 298 298 298 298 298 298 298 298 298 298 298 298 298 297 297 296 296 296 296 296 296 296 296 296 296 296 296 296 295 295 295 295 295 294 294 294 294 293
306 306 305 305 305 305 305 305 305 305 305 305 305 305 304 304 304 305 305 305 304 304 304 304 304 305 304 304 302 301 301 301 300 300 300 300 300 300 300 299 299 298 297 298 298 298 298 298 298 298 298 298 298 298 298 298 299 298 298 298 298 298 297 297 297 296 296 296 296 296 296 296 296 296 296 296 296 296 295 295 295 295 295 294 294 294 294
306 306 305 305 305 305 305 305 305 305 305 305 304 305 304 304 304 304 304 304 304 304 304 304 305 304 304 303 302 301 301 300 300 300 300 300 300 300 300 299 298 297 296 297 297 297 297 297 297 297 297 296 296 296 296 296 297 297 298 298 298 297 297 297 297 296 296 296 296 296 296 296 296 296 296 296 296 296 296 296 295 295 295 295 295 295 295
306 306 305 305 305 305 305 305 305 305 305 304 304 304 304 303 304 304 304 304 304 303 303 304 304 303 303 302 302 302 301 300 300 300 300 300 300 300 299 299 298 297 296 297 297 297 296 296 296 296 296 295 295 295 295 295 295 295 297 297 298 298 297 297 297 297 296 296 296 296 296 296 296 296 296 296 296 296 296 296 296 296 296 295 295 295 295
306 306 305 305 305 304 305 304 304 304 305 304 304 304 304 303 304 303 303 303 304 303 303 304 303 303 303 303 302 302 301 301 300 300 300 300 300 299 299 298 297 297 297 297 297 297 296 296 296 297 296 296 296 296 295 295 295 295 295 296 296 296 296 296 296 296 296 296 296 296 297 297 297 297 297 297 297 297 297 296 296 296 296 296 296 296 296
306 306 306 305 305 305 305 304 304 304 304 304 304 304 303 303 303 303 303 303 304 303 303 303 303 303 303 303 302 301 301 300 300 300 300 300 300 299 299 298 297 297 298 298 298 297 297 297 297 297 297 297 297 297 296 296 296 296 295 296 296 296 296 296 296 296 296 296 296 296 296 296 296 296 296 297 297 297 297 297 297 296 296 296 296 296 296
306 306 306 306 305 305 305 304 304 304 304 304 304 304 303 303 303 303 303 303 303 303 303 303 303 303 303 302 302 301 301 300 300 300 300 300 300 299 299 298 297 297 298 298 298 297 297 297 298 298 298 298 298 298 298 297 297 297 296 296 297 297 297 297 297 297 297 297 297 296 296 296 296 296 296 296 296 297 296 296 297 297 296 296 296 296 297
306 306 306 306 305 305 305 305 304 304 304 304 304 304 304 303 303 303 303 303 303 303 303 303 303 302 302 302 302 301 301 300 300 300 300 300 299 299 299 298 297 297 298 298 298 297 297 298 298 299 299 299 299 299 299 299 299 298 298 298 298 297 298 298 298 298 298 298 297 297 297 296 296 297 297 297 297 297 297 297 297 297 297 297 297 297 297
306 305 305 305 305 305 305 305 304 304 304 304 304 304 304 303 303 303 303 303 303 303 303 303 302 302 302 302 301 301 301 301 300 300 300 299 299 298 298 298 297 297 298 298 298 298 298 298 298 299 299 300 299 299 299 299 299 299 299 299 299 299 299 298 298 298 298 298 298 298 298 297 297 297 297 297 298 298 297 297 297 297 297 297 297 297 296
305 305 305 305 305 305 305 305 305 304 304 304 304 304 303 303 303 303 303 303 302 302 302 302 302 301 301 301 301 301 301 300 300 300 300 299 298 298 298 297 297 297 298 298 298 298 298 298 299 299 300 300 300 300 299 299 299 299 299 299 299 299 299 299 299 299 299 298 298 298 298 298 298 298 298 298 298 298 298 298 298 297 297 297 297 297 296
305 305 305 305 305 305 305 305 305 304 304 304 304 303 303 302 302 302 302 302 302 302 302 301 301 301 301 301 301 300 300 300 300 300 300 300 299 298 298 297 297 297 297 298 298 297 298 298 299 299 300 299 300 300 300 299 299 299 299 300 300 300 300 300 300 300 299 299 299 299 299 299 298 298 298 298 298 298 298 298 297 297 297 297 296 296 296
305 305 305 305 305 305 305 305 305 305 304 304 304 304 303 302 302 302 302 302 302 302 302 302 301 301 301 300 300 300 300 300 300 300 300 300 299 299 298 298 297 297 297 297 297 297 298 298 298 299 299 299 299 300 300 299 299 299 300 300 300 301 300 300 300 300 300 300 300 299 299 299 298 298 298 298 298 298 298 297 297 297 297 297 296 296 296
Wind_Speed
2 3 2 3 3 4 5 6 10 11 11 11 13 10 6 7 7 5 6 10 9 9 15 20 19 18 17 18 20 22 24 26 29 30 31 30 31 32 33 34 35 35 33 31 29 27 24 19 16 15 14 9 4 2 1 1 2 4 5 5 5 6 7 8 10 11 12 12 12 12 12 13 14 16 17 18 18 19 20 21 22 23 23 24 25 25 26
4 3 2 1 3 3 2 3 6 9 12 13 13 9 7 9 7 1 8 13 8 4 11 18 18 17 19 20 22 23 25 27 30 32 32 29 29 31 31 32 36 36 33 32 30 27 23 18 16 16 12 7 5 4 2 1 2 4 4 3 5 6 8 10 12 12 12 12 12 12 13 14 16 17 17 18 19 20 21 22 23 23 24 24 25 26 27
3 3 3 1 5 4 3 2 3 6 10 12 13 10 7 9 7 3 7 9 4 1 6 13 17 20 22 22 23 25 27 29 31 31 30 29 29 32 34 35 37 36 33 32 29 26 23 19 17 15 10 7 6 5 3 3 4 5 4 4 6 8 10 11 12 13 13 12 12 13 14 15 16 17 17 18 19 20 21 22 23 23 24 25 25 26 27
2 1 1 3 6 5 3 3 4 7 9 8 8 7 5 8 7 6 7 6 4 5 9 14 18 21 21 21 24 26 27 30 33 31 30 32 34 37 37 37 37 36 33 31 28 25 23 20 17 14 11 8 7 5 5 5 6 6 5 5 7 9 11 12 12 12 12 12 12 13 15 16 16 17 17 18 19 21 22 22 23 23 24 25 25 25 26
3 2 3 3 5 3 3 3 4 7 5 3 3 3 3 7 7 7 6 5 4 10 15 16 18 19 20 23 27 30 30 31 32 31 32 35 38 38 37 36 37 35 32 29 27 25 23 20 18 15 11 9 7 6 7 7 7 6 6 7 9 11 12 12 12 12 12 12 12 14 15 15 16 16 17 18 20 21 21 21 22 23 23 24 24 25 26
3 3 3 3 4 4 2 2 4 5 3 3 5 4 3 4 3 2 1 2 9 16 18 18 19 20 22 26 31 34 35 32 30 32 35 38 39 38 36 37 36 33 31 29 27 26 24 21 18 15 11 9 8 9 9 9 7 6 7 8 10 11 12 12 12 12 12 12 13 14 15 15 15 15 16 18 19 19 20 20 21 22 22 23 24 25 26
3 2 2 4 5 3 1 2 4 5 4 3 2 1 3 3 2 1 2 7 13 18 19 20 19 18 22 27 30 33 36 34 34 36 39 39 39 39 38 37 35 32 32 32 29 27 24 20 17 14 11 10 10 11 11 10 9 8 9 10 11 11 12 12 13 12 12 12 13 14 14 14 14 15 16 17 17 18 18 19 21 21 22 22 23 24 25
2 3 4 4 2 1 3 3 4 5 4 5 4 2 5 7 5 5 6 9 12 15 17 19 19 21 23 24 26 32 37 38 40 42 42 41 41 41 41 39 36 35 33 32 30 27 23 20 17 14 12 11 11 12 12 12 12 11 11 11 11 11 12 13 13 13 13 13 14 14 14 14 14 15 15 16 16 17 18 19 20 20 21 22 22 23 24
1 2 3 1 2 1 3 4 5 6 6 7 6 3 5 8 7 7 7 11 14 15 16 20 25 28 25 16 15 27 37 41 43 44 44 45 43 42 41 39 36 35 32 30 29 25 22 20 17 15 14 13 12 13 14 14 14 13 12 12 12 12 13 14 14 14 13 13 14 14 14 14 14 15 14 15 15 16 17 18 19 19 20 21 22 22 23
1 1 2 2 3 3 2 1 5 7 6 5 3 2 3 7 9 10 12 16 18 17 20 26 29 26 18 8 11 25 35 38 39 38 39 41 41 41 41 38 35 33 31 29 26 24 22 20 17 16 15 14 14 15 15 15 15 14 14 14 13 14 14 15 15 14 14 14 14 14 14 15 15 15 15 15 16 16 17 17 18 18 19 20 20 22 23
2 3 3 3 3 3 0 1 4 7 7 4 2 3 5 7 12 16 17 18 20 20 26 31 26 17 10 8 15 28 34 33 35 38 39 39 40 40 39 37 36 34 31 28 26 24 22 21 19 17 16 15 16 17 17 17 16 16 15 15 15 15 16 16 15 15 15 15 15 15 15 16 16 16 17 17 17 16 16 17 17 17 18 18 20 21 22
3 3 3 2 2 2 1 2 4 8 8 4 4 5 4 8 18 23 23 23 23 25 31 30 21 13 8 11 23 36 36 33 35 40 41 41 40 40 38 36 35 33 30 28 27 24 21 20 20 19 18 18 19 19 19 18 17 17 17 17 17 17 17 17 17 16 16 15 16 17 17 18 18 18 18 17 16 16 16 16 16 16 17 18 20 22 22
4 4 3 2 2 1 2 3 8 12 8 3 5 3 0 8 22 28 30 31 30 33 35 29 17 8 6 18 34 40 37 36 37 39 41 41 40 39 38 35 33 31 29 27 25 21 19 20 22 21 20 21 21 20 20 19 19 19 19 19 19 19 19 18 18 17 17 17 18 19 19 19 19 18 18 17 16 16 17 17 17 17 19 20 21 23 23
3 2 2 1 2 2 5 7 10 12 7 3 2 2 2 10 23 27 31 34 33 36 35 24 16 14 17 30 42 41 38 40 40 40 42 43 42 41 38 35 32 31 30 27 22 21 22 22 23 23 21 21 21 21 21 21 21 22 21 21 21 20 20 20 19 19 19 20 20 21 20 20 19 19 19 18 18 19 19 19 20 20 21 22 23 24 24
2 1 2 1 1 4 12 13 7 6 4 1 3 5 2 13 23 26 29 32 33 34 29 21 21 27 32 40 44 41 41 43 41 42 44 44 43 41 38 34 33 31 29 26 23 24 25 24 24 23 21 21 22 22 22 23 23 23 23 22 22 21 21 21 21 21 21 21 21 21 21 20 21 21 21 21 21 21 21 22 23 23 24 24 25 25 25
2 3 4 2 1 4 11 9 2 2 4 3 7 3 6 15 22 24 26 29 33 32 28 26 31 36 40 43 45 44 44 44 43 45 46 44 42 40 35 34 33 30 28 27 26 26 26 25 25 24 21 21 23 24 24 25 24 24 24 23 22 22 22 22 22 22 22 22 22 21 21 21 21 22 22 22 22 22 22 23 23 24 25 25 26 26 27
1 1 2 1 1 2 7 5 4 3 5 5 5 2 8 14 21 24 24 28 31 30 29 33 37 40 43 44 45 46 46 46 47 47 46 44 41 37 35 34 32 29 28 28 29 28 27 26 26 23 20 20 23 25 26 26 25 25 24 23 22 22 22 22 22 22 23 22 22 21 21 21 21 21 21 21 21 21 22 23 24 25 26 26 27 28 28
1 2 1 1 2 2 5 6 5 5 4 5 4 6 9 14 20 24 26 29 30 29 32 36 38 40 45 45 43 46 48 48 48 47 45 43 40 37 36 35 32 30 30 30 30 30 30 28 25 23 20 19 22 26 27 26 26 25 25 23 22 22 22 22 22 22 22 21 21 21 20 20 20 19 19 20 20 20 21 22 24 25 26 27 28 28 28
4 2 0 1 2 2 3 6 5 4 5 8 7 9 13 16 20 24 28 30 30 30 34 38 38 40 46 47 45 46 49 49 48 47 45 42 39 37 36 35 33 33 32 31 32 32 32 29 26 23 22 21 24 27 27 26 26 25 24 24 23 22 21 21 21 21 21 21 20 19 19 18 18 18 18 18 19 19 20 21 23 24 25 26 27 28 28
2 1 1 1 3 3 2 5 5 4 6 8 9 12 16 20 23 26 28 30 32 34 36 39 39 40 43 47 48 49 51 51 49 47 44 41 39 38 36 35 35 34 33 33 33 33 32 30 27 25 25 25 26 27 27 26 25 24 23 23 22 21 21 20 20 20 20 20 19 18 18 17 17 17 17 17 18 19 20 21 22 23 24 25 26 27 28
1 0 1 1 1 2 3 6 7 6 7 9 11 14 18 23 26 28 29 31 34 35 35 38 41 40 40 46 50 50 51 51 49 46 43 41 40 39 37 35 35 34 33 34 34 33 32 31 28 27 27 27 27 27 26 25 24 23 23 22 21 21 20 19 19 19 19 18 18 17 17 16 16 16 16 17 18 19 20 21 22 22 24 24 25 26 27
1 0 4 6 2 1 4 9 10 9 9 12 15 17 21 25 28 30 31 32 33 34 34 36 41 43 43 46 50 51 51 50 47 45 43 42 40 39 37 35 34 33 33 34 34 33 32 31 30 29 29 28 27 26 25 25 24 23 22 21 20 19 19 18 18 18 18 17 17 16 16 16 15 15 15 16 16 17 18 19 20 21 22 23 23 24 25
1 1 6 9 1 2 6 13 13 12 13 15 19 21 23 26 29 32 34 34 34 35 35 35 39 43 46 48 50 51 50 49 46 44 43 42 40 39 37 36 35 34 34 34 34 33 33 33 31 30 29 27 26 25 24 23 22 22 21 21 20 19 18 18 17 17 17 16 16 15 15 14 14 14 14 14 15 16 16 17 18 19 20 21 21 22 23
2 3 11 9 2 0 9 14 13 13 15 17 20 23 25 27 29 32 35 35 35 37 39 39 39 41 46 50 51 51 50 48 45 43 42 40 40 39 37 36 36 36 36 36 34 34 34 33 32 30 28 26 25 24 23 22 21 20 20 20 20 19 18 18 17 17 16 15 15 14 13 13 13 13 12 12 12 13 14 15 16 17 18 18 19 19 20
2 9 11 7 3 8 13 12 11 13 15 17 20 23 25 28 30 32 34 35 35 37 40 41 41 43 46 49 50 49 49 47 44 42 41 40 39 38 37 36 35 36 37 36 34 34 35 34 31 29 27 25 23 22 21 21 20 20 19 19 19 19 18 17 17 16 16 15 14 13 12 11 10 10 10 9 9 10 11 12 13 14 15 16 16 17 18
7 11 12 10 11 14 13 10 10 12 14 15 19 21 25 28 30 31 33 34 36 38 39 40 41 43 46 48 48 47 47 46 43 42 42 41 39 37 36 35 35 36 36 35 34 35 35 33 31 28 26 24 23 21 20 20 20 20 19 18 18 17 16 16 15 15 15 14 13 12 11 10 9 8 8 7 7 8 7 8 9 11 12 13 14 14 16
12 14 13 11 10 11 10 8 9 12 14 15 18 22 26 28 29 30 32 33 35 36 37 38 40 39 40 44 47 48 47 46 43 41 40 39 37 35 34 34 34 35 35 34 34 34 34 32 30 27 25 23 22 21 20 20 19 19 19 18 16 15 15 14 13 12 12 12 12 11 9 8 7 6 6 5 6 6 5 5 6 7 9 10 11 12 13
13 11 5 2 6 10 9 8 10 13 14 16 20 24 27 29 29 30 32 33 34 35 36 38 41 41 39 41 45 46 46 44 43 41 40 38 36 35 34 34 34 35 35 34 34 34 33 31 29 27 25 23 22 21 21 20 20 20 19 17 16 15 13 12 11 11 10 10 10 9 7 6 5 5 4 4 4 4 5 5 5 6 6 7 9 10 12
5 3 3 5 9 13 12 11 12 14 15 19 23 25 28 29 31 31 32 33 34 35 36 37 40 42 43 43 44 45 45 43 43 43 41 37 35 36 36 35 35 35 34 34 34 33 32 30 28 27 26 24 22 22 21 21 20 20 18 17 16 14 13 11 10 9 8 8 8 7 6 5 4 3 3 3 3 4 5 5 6 5 5 5 7 8 9
6 8 11 13 14 14 15 15 15 16 19 22 24 26 28 31 32 33 34 34 36 37 38 37 37 39 42 44 45 44 44 44 44 42 38 34 35 37 37 37 36 36 35 35 34 33 31 29 28 27 27 25 23 21 20 20 19 18 17 15 14 13 12 11 9 8 7 7 6 6 5 4 3 2 1 1 2 3 4 5 6 6 5 5 5 6 7
12 13 15 15 15 15 16 17 17 18 21 24 26 27 29 31 32 32 32 34 35 37 38 38 38 39 41 45 46 44 44 45 43 38 34 34 36 38 39 38 38 38 37 35 33 32 29 28 27 27 26 25 22 20 19 18 17 16 15 14 13 12 11 10 9 8 7 6 6 5 5 4 3 3 2 1 0 1 2 4 5 6 7 6 5 5 6
16 15 14 15 16 16 16 17 18 20 21 23 26 28 29 31 32 32 32 33 35 36 37 38 39 40 41 44 46 45 45 43 39 35 35 37 39 39 39 36 35 34 34 32 30 29 28 26 26 25 25 24 22 20 19 17 16 16 15 14 13 12 10 9 9 8 8 7 6 6 6 5 4 3 3 3 2 2 2 3 4 5 7 7 6 5 6
14 13 12 15 17 16 15 17 19 21 22 24 26 28 28 30 33 33 33 34 35 36 37 38 39 41 42 43 45 45 43 40 37 37 38 40 40 39 37 34 32 31 30 29 27 26 25 25 24 24 24 24 22 20 18 17 16 16 15 14 13 12 11 10 9 9 9 8 7 7 7 6 5 5 4 4 3 3 3 4 4 5 6 6 6 6 6
4 4 10 17 17 15 16 18 21 22 22 23 25 27 28 30 33 34 34 35 35 36 37 38 40 41 42 42 43 42 40 39 40 40 40 40 40 39 36 33 31 30 29 28 27 26 25 25 25 24 24 22 20 18 17 17 17 16 15 13 13 13 12 10 9 9 10 9 8 8 7 7 6 5 5 4 4 4 4 4 4 5 5 5 6 6 6
3 2 10 16 15 13 15 19 22 23 23 23 25 27 28 30 32 33 32 33 34 35 36 38 39 40 40 41 41 40 39 41 43 42 39 38 38 38 36 34 32 31 31 30 28 26 25 24 23 23 21 19 18 17 16 16 16 16 14 13 12 11 10 10 9 9 9 9 9 9 8 7 7 6 5 4 4 4 4 5 5 4 4 4 5 6 6
4 7 11 14 14 13 14 18 21 23 23 24 25 27 28 29 30 30 31 32 33 34 35 37 39 40 40 41 41 40 40 41 41 39 36 36 37 38 37 35 33 32 32 31 28 25 24 23 22 21 20 19 18 17 16 16 15 14 14 13 12 10 10 9 8 8 9 10 10 10 8 8 8 7 6 4 4 4 4 5 5 5 4 3 4 5 5
6 8 10 12 13 14 15 17 19 22 23 23 24 26 27 28 29 29 31 32 33 34 36 38 39 39 40 40 39 39 39 38 37 36 35 35 35 36 36 35 33 32 31 30 27 25 24 23 21 20 20 19 18 17 16 15 15 14 13 13 12 11 10 9 8 8 8 10 11 10 9 8 8 8 7 6 5 5 4 4 5 5 4 3 3 3 4
8 8 9 11 12 14 15 16 17 19 21 22 23 24 25 26 27 29 31 32 33 34 35 36 37 38 39 39 39 38 37 35 35 36 35 34 34 36 36 35 33 31 30 28 25 24 24 24 23 21 20 19 18 17 16 15 14 13 13 12 12 12 11 10 9 7 7 9 11 11 10 9 9 8 8 8 7 7 6 6 6 5 5 4 3 3 3
8 9 10 10 12 14 15 15 16 17 18 20 22 22 22 23 25 27 29 30 31 32 34 35 37 38 38 38 37 36 35 35 36 36 35 33 33 33 32 31 30 28 25 23 22 23 24 24 23 21 20 18 17 16 16 16 15 14 13 13 13 13 12 11 10 9 8 9 11 12 11 10 10 10 10 10 9 9 8 8 7 7 7 6 5 5 5
9 10 11 11 13 15 16 15 16 16 15 16 19 20 21 22 23 25 26 27 29 31 33 35 37 38 37 36 35 35 35 36 36 35 33 32 31 29 27 26 25 23 22 21 21 22 22 22 22 21 20 19 18 17 16 16 16 15 15 14 14 14 13 13 12 11 10 9 11 11 11 11 11 11 11 11 11 11 10 10 10 9 9 9 8 7 7
9 10 11 12 14 15 15 15 16 15 14 14 16 17 19 20 21 22 24 26 28 29 32 34 36 37 35 33 33 34 35 36 35 33 32 31 30 28 26 24 23 22 22 22 22 22 22 23 22 21 20 19 19 18 17 16 16 16 16 16 16 15 14 14 14 13 12 11 11 11 11 11 12 12 11 12 12 12 12 12 12 12 11 11 10 10 9
9 9 11 12 14 15 15 15 16 15 14 14 14 15 17 17 18 19 21 24 26 28 31 32 33 32 32 32 33 33 34 35 34 33 31 30 28 26 24 22 20 20 22 23 23 23 23 23 22 21 20 20 19 19 19 19 19 18 18 17 17 16 16 15 14 13 13 12 12 12 12 13 13 14 14 14 13 13 13 13 13 12 12 12 11 11 11
9 10 11 13 14 14 14 15 15 15 15 14 14 14 16 16 17 17 20 22 25 28 31 31 30 30 31 32 31 30 32 33 33 32 30 27 24 22 20 19 19 19 21 22 22 21 21 21 21 20 19 18 18 18 18 18 19 20 19 19 18 17 17 16 16 15 14 14 14 14 14 14 15 15 15 15 15 14 14 14 14 13 13 13 13 12 12
10 10 11 13 14 14 14 14 14 14 15 15 14 14 15 16 16 17 20 23 25 27 29 30 30 30 31 30 28 29 32 33 33 32 28 25 22 20 19 18 19 20 20 20 19 18 19 19 18 17 16 16 15 15 14 14 16 17 18 19 18 18 18 17 17 16 16 16 16 16 16 16 16 16 16 16 16 16 16 16 15 15 15 15 15 15 15
11 11 11 13 14 14 14 14 14 14 16 16 15 14 15 15 16 17 19 23 25 26 27 28 28 29 29 28 28 29 30 30 29 28 25 23 22 21 20 19 20 20 19 18 17 17 18 18 17 16 15 14 13 13 13 12 13 14 15 16 17 17 17 16 17 17 17 17 17 17 18 18 18 18 19 19 20 20 20 20 19 19 19 19 19 19 19
12 12 12 13 13 13 13 12 13 14 15 16 16 16 15 16 17 17 18 21 24 25 25 26 26 26 27 27 27 29 30 28 25 22 20 18 18 17 17 19 21 21 19 17 17 18 18 18 17 16 15 13 13 12 13 13 13 14 15 15 16 16 15 15 16 16 17 17 18 18 19 20 21 21 22 22 22 23 23 23 23 23 23 23 23 23 23
13 13 13 13 13 13 13 13 12 13 14 15 16 16 16 17 17 17 17 18 20 22 23 24 23 23 23 25 27 29 30 28 25 22 19 17 16 15 16 18 21 22 20 18 17 18 19 19 18 16 15 14 13 13 13 13 14 15 15 16 16 16 16 16 17 17 18 19 19 20 20 21 21 21 21 21 22 22 23 24 25 26 26 26 27 27 27
13 13 14 14 14 14 14 13 13 13 14 14 14 15 15 16 16 16 16 18 19 21 22 23 23 22 22 23 25 26 25 24 23 23 21 19 18 18 18 19 21 23 22 19 18 18 20 20 18 17 16 15 15 16 16 16 15 16 16 16 17 17 17 18 18 18 19 20 21 22 22 23 23 22 22 22 23 23 24 24 25 26 27 27 29 29 30
11 12 14 15 14 15 15 14 13 13 14 15 15 15 15 15 16 17 18 19 21 22 22 22 22 21 21 22 23 23 22 20 20 19 19 18 18 20 21 21 21 23 22 21 20 20 21 21 20 18 17 17 17 18 18 18 18 17 17 16 16 17 17 18 18 18 18 19 19 21 22 23 24 25 26 26 26 26 27 27 27 27 27 28 29 30 30
12 11 12 13 13 14 15 14 14 14 15 15 16 16 16 16 16 16 17 19 21 22 22 21 20 20 21 21 22 22 22 21 19 17 16 16 17 18 21 22 23 23 22 22 21 21 21 21 21 19 18 17 17 18 19 20 20 19 18 18 18 18 18 18 18 18 18 18 19 20 21 22 23 24 26 27 28 28 28 27 27 27 27 29 30 30 30
14 13 12 12 12 12 13 13 13 13 14 14 15 15 15 15 14 15 16 17 18 20 20 20 19 19 20 21 22 21 21 21 19 18 17 16 15 16 18 21 22 23 23 23 23 23 23 23 22 21 20 19 19 19 20 21 21 20 20 20 20 20 20 20 21 20 19 19 21 22 22 22 21 22 23 25 26 26 25 25 25 25 26 27 27 27 27
15 14 13 13 13 13 13 13 13 13 13 14 14 15 16 15 15 16 16 16 17 18 19 19 19 19 20 22 23 22 22 21 20 19 18 17 16 16 17 18 20 22 23 24 24 24 24 24 24 23 23 22 22 22 22 22 22 22 22 22 22 22 22 22 22 22 22 22 23 25 24 23 22 21 21 22 22 22 22 23 24 25 25 25 25 24 24
Wind_Direction
131 61 106 139 165 179 177 180 183 181 177 181 200 209 161 148 199 217 153 167 186 181 183 187 181 171 164 159 158 157 153 152 151 151 151 149 149 153 155 157 161 161 160 162 164 163 160 152 145 147 145 138 145 187 216 315 22 65 77 86 95 94 91 87 81 77 76 74 70 66 63 60 56 53 50 47 45 43 41 39 38 37 36 36 35 34 33
92 43 22 131 157 146 134 191 200 190 185 192 206 206 167 180 217 153 149 184 198 181 189 188 176 164 151 144 148 151 150 152 153 152 151 150 150 154 156 159 163 163 161 163 163 161 158 152 149 149 142 140 174 193 196 167 103 97 100 108 105 99 93 86 83 82 81 78 76 72 68 64 60 56 52 49 47 45 43 42 41 39 37 37 36 36 35
87 36 15 103 164 161 152 196 246 213 196 199 208 203 177 193 214 137 150 186 211 202 171 162 155 151 146 147 153 154 155 156 155 154 153 152 152 155 159 161 163 162 162 162 161 159 158 155 152 150 145 154 178 178 165 153 133 124 128 124 111 101 93 88 86 86 85 82 79 76 71 66 62 58 54 52 50 47 46 44 42 40 39 38 37 36 36
134 87 230 169 145 126 157 205 215 204 197 200 209 202 181 192 185 138 152 194 210 174 151 146 150 152 151 155 157 157 159 160 159 158 156 154 155 158 160 160 160 161 161 160 159 160 161 156 153 154 154 159 167 165 156 149 140 138 137 124 111 102 95 93 91 89 87 85 82 78 74 68 64 61 57 55 52 49 47 44 41 40 39 37 36 36 36
156 184 232 197 142 138 220 218 185 194 201 196 200 214 217 202 175 152 184 220 182 157 153 151 156 160 161 164 164 163 163 162 161 158 156 156 159 161 161 160 161 162 161 159 162 164 161 156 154 153 151 155 159 155 150 144 141 144 137 120 111 105 101 98 95 92 89 87 85 80 75 71 68 64 60 57 53 49 46 44 41 39 38 36 35 35 36
173 204 248 223 195 210 223 145 164 199 216 196 194 212 232 213 189 165 207 136 135 152 163 165 165 168 169 168 167 165 163 160 157 155 157 160 162 162 163 164 164 163 161 162 164 163 159 154 150 144 145 155 157 149 144 141 141 142 132 120 113 109 107 101 96 94 91 89 86 81 77 74 71 66 62 58 54 50 47 43 41 40 38 37 36 36 37
152 172 213 209 207 205 151 160 195 206 215 205 190 265 267 230 240 266 185 150 152 164 172 170 165 163 162 162 163 165 164 161 157 157 161 164 165 166 167 167 167 165 164 164 163 160 155 149 146 147 151 156 153 146 141 139 142 140 131 123 117 111 107 101 96 94 92 90 87 83 80 77 72 67 62 58 54 50 46 43 41 40 38 38 38 38 38
140 158 193 205 204 114 133 163 164 155 173 182 171 226 239 215 219 228 193 168 163 161 157 152 146 145 146 150 159 166 167 168 169 169 169 170 171 172 171 170 168 166 165 164 161 157 152 148 150 153 153 155 154 146 142 141 141 139 134 126 118 111 106 101 97 95 93 92 89 86 84 79 74 69 63 59 55 50 46 44 42 41 40 39 40 40 39
179 159 178 222 296 198 162 173 174 162 166 177 178 219 217 191 203 216 179 158 158 149 135 131 133 133 132 133 156 168 170 173 176 176 175 174 173 171 170 169 167 164 163 163 160 156 153 152 153 152 151 154 152 145 142 142 139 138 135 126 117 113 107 102 100 98 95 94 90 88 85 80 76 71 66 63 58 53 48 46 43 42 42 41 40 40 40
184 144 168 211 247 227 182 168 177 159 146 164 187 258 211 180 190 197 175 157 153 144 136 136 134 131 131 139 170 174 174 174 173 170 169 169 169 169 168 165 162 162 163 163 160 157 155 152 149 149 150 149 146 143 142 141 140 137 132 124 118 115 109 105 103 100 96 94 90 89 87 83 79 76 72 67 61 56 51 48 45 44 43 42 42 42 41
158 172 184 188 213 233 345 76 159 149 137 141 185 237 219 178 173 182 176 161 153 149 146 146 141 139 154 179 179 176 173 172 170 165 162 164 166 166 166 163 161 162 163 160 158 157 154 149 147 149 148 144 143 142 141 142 141 136 130 124 120 116 110 106 103 99 96 94 92 91 89 85 82 78 73 68 63 58 54 50 49 47 46 45 44 44 43
163 177 178 196 231 222 134 122 161 157 141 131 180 213 215 161 163 173 175 166 160 156 153 153 157 167 177 172 172 173 170 167 169 168 166 166 164 162 163 163 162 161 161 159 157 156 152 150 151 151 147 143 143 142 142 143 139 132 126 122 118 113 109 105 102 99 98 96 95 92 88 85 81 77 73 69 65 61 58 56 54 51 50 49 48 47 45
166 179 180 229 253 188 123 131 156 158 150 154 192 202 342 162 167 171 173 172 169 165 163 165 170 174 162 156 160 164 164 163 165 168 168 166 164 163 164 164 162 160 160 159 157 155 156 156 153 149 146 145 143 142 143 141 135 129 124 120 116 112 108 105 103 102 101 98 95 91 87 85 82 79 77 74 70 68 66 64 61 57 55 53 52 50 47
151 181 171 223 268 159 127 130 153 167 167 167 202 316 332 183 177 171 170 173 173 171 172 171 153 134 143 154 156 159 163 163 163 164 164 162 162 162 163 163 163 161 160 159 158 157 158 155 150 149 152 149 144 142 143 138 132 128 124 120 117 113 109 108 106 105 103 99 95 92 90 88 86 84 82 79 75 74 72 69 65 61 58 56 54 52 49
115 110 138 164 284 158 142 135 143 191 198 75 337 323 234 181 180 175 172 173 173 171 170 162 143 138 145 152 155 159 163 164 162 163 163 162 161 161 161 162 164 163 160 160 159 158 156 152 151 156 158 151 144 143 141 136 132 129 126 122 119 114 111 109 107 106 104 101 98 96 94 92 89 87 84 81 77 75 72 70 66 62 60 58 55 54 52
165 155 166 172 358 156 161 154 119 221 220 320 340 332 162 170 177 177 174 172 172 171 166 153 145 145 147 150 154 158 162 163 162 162 163 163 162 162 163 164 165 165 161 159 159 158 156 154 156 161 160 151 146 143 138 135 134 131 127 124 119 114 111 109 107 107 106 104 102 100 98 95 91 87 84 80 77 74 70 67 65 62 59 58 56 55 54
189 193 203 223 358 192 196 214 335 323 242 281 316 228 176 174 175 175 172 169 170 172 165 152 146 146 148 150 154 157 159 162 163 163 163 163 163 163 165 165 166 166 163 161 160 158 156 158 160 162 162 156 149 143 138 135 134 132 129 126 121 116 112 109 108 108 107 106 104 101 98 94 89 86 83 79 76 72 68 66 64 62 60 58 56 55 53
208 258 312 334 301 268 220 227 286 304 233 214 228 212 191 178 174 174 172 170 170 169 161 152 147 148 150 150 153 157 159 161 163 163 163 164 165 166 166 166 167 167 165 163 161 158 158 161 162 162 164 162 153 145 138 134 133 131 129 127 124 120 116 112 111 109 108 108 105 101 97 93 89 85 82 78 76 72 70 67 64 62 60 58 56 54 52
177 202 32 9 292 298 230 219 250 271 206 189 200 204 188 175 173 173 171 171 170 166 160 154 149 150 153 153 153 156 160 161 163 163 163 165 167 168 167 166 166 167 166 164 162 159 160 163 164 163 163 161 153 145 139 135 133 131 130 130 128 125 121 117 114 113 111 109 106 102 97 93 88 84 80 78 76 72 70 69 66 64 61 58 56 54 51
174 215 16 340 318 317 241 216 218 223 207 195 196 195 183 173 169 170 171 171 168 164 161 159 153 150 154 156 156 157 160 161 163 164 165 167 169 169 168 167 167 168 168 166 163 161 161 163 163 163 160 156 151 146 140 137 136 133 131 131 130 129 127 123 119 117 114 111 107 103 98 93 88 84 80 76 74 71 69 67 65 63 61 58 55 53 50
135 276 182 179 320 315 244 225 216 208 200 191 188 187 179 172 167 166 167 169 168 165 164 163 158 153 154 159 160 160 160 162 164 166 167 168 169 169 167 168 169 170 169 167 164 162 162 162 161 159 156 153 149 145 142 141 139 137 136 134 132 133 132 129 125 121 117 114 109 104 99 95 90 85 81 76 73 71 68 65 63 61 59 57 54 52 49
131 279 176 170 168 322 202 202 202 193 186 184 181 177 173 172 170 167 164 164 167 169 169 168 163 159 158 162 164 163 163 164 166 167 168 168 168 169 169 169 171 171 170 167 165 163 162 161 159 156 153 150 147 145 143 142 142 142 141 138 137 137 135 133 132 127 121 118 113 107 104 99 93 88 83 78 74 71 67 65 63 60 59 56 53 51 49
9 347 166 168 152 16 167 178 183 180 177 179 178 174 171 171 172 170 167 163 163 166 170 172 171 166 163 164 165 164 165 167 167 168 169 168 167 170 171 170 171 172 171 169 166 164 163 161 159 155 152 149 147 146 144 144 144 145 144 143 142 140 137 136 135 132 128 124 119 113 109 104 98 93 86 80 75 71 67 64 61 58 56 54 52 51 49
346 161 166 177 253 191 162 166 169 169 172 177 179 175 172 170 170 171 171 168 166 165 165 168 173 172 167 166 166 165 166 167 167 168 168 168 169 171 172 171 172 173 172 169 167 166 165 162 159 157 155 153 151 149 147 147 146 147 146 145 143 141 139 137 134 132 130 126 120 116 112 106 102 97 89 82 76 69 65 62 59 56 53 50 48 47 46
150 153 161 174 168 146 148 150 156 164 172 179 180 175 172 171 169 169 171 171 169 167 163 163 168 171 169 168 169 167 166 166 167 167 168 169 171 172 172 174 176 174 172 170 169 168 166 163 161 160 159 158 157 156 155 152 151 150 149 146 144 143 141 139 136 133 129 125 119 115 110 105 102 97 92 87 78 69 63 59 56 54 51 48 45 42 41
147 147 145 135 129 134 137 137 150 164 172 180 180 176 172 170 167 168 171 172 171 170 167 164 165 167 168 169 169 168 165 165 166 168 169 170 171 172 174 176 177 175 172 171 170 169 167 164 163 162 162 163 164 165 164 162 160 157 153 149 146 143 140 139 137 136 133 129 122 115 108 103 99 95 95 92 83 74 64 55 51 49 46 43 41 39 36
137 138 130 118 124 140 144 142 154 164 171 177 178 172 169 168 167 167 170 170 169 170 168 164 162 161 162 165 166 167 165 164 165 168 170 169 169 171 174 177 177 175 173 171 170 170 168 165 165 164 164 166 169 171 172 171 170 167 162 156 151 145 140 138 138 138 138 134 127 119 111 102 93 87 89 90 83 74 65 57 53 48 42 39 36 34 33
138 145 149 159 164 159 149 142 151 158 164 171 172 168 166 166 165 164 162 161 162 163 163 163 163 161 160 161 163 164 165 164 166 169 170 169 167 167 171 176 176 174 172 171 171 170 168 166 166 167 167 169 171 172 173 174 174 171 166 160 156 151 146 142 139 140 144 143 137 130 122 112 99 84 79 82 80 69 58 54 53 48 43 38 32 28 29
140 153 175 171 157 147 138 137 146 152 158 164 165 165 165 163 160 158 157 157 158 159 158 161 164 164 165 165 165 164 165 166 167 168 169 169 166 164 167 172 172 170 171 172 172 171 169 168 169 170 170 169 167 166 167 168 168 167 165 162 161 159 155 151 147 145 148 152 151 147 140 132 122 99 80 77 76 67 56 49 47 44 42 41 35 28 25
97 108 121 130 135 138 137 140 146 151 156 159 159 160 163 161 155 153 156 158 160 160 159 160 162 164 165 166 167 168 168 169 169 169 169 168 165 163 166 168 168 168 170 172 172 171 170 170 172 173 173 171 168 164 163 163 163 164 165 166 167 165 163 162 161 159 161 163 166 165 161 155 155 156 143 109 72 61 53 45 39 34 29 31 34 31 25
116 120 125 128 133 138 139 142 148 151 154 157 157 157 159 158 154 151 154 157 159 161 162 164 164 164 164 166 168 170 171 170 169 170 169 167 165 166 168 169 169 169 170 172 172 172 172 173 176 177 177 177 174 170 168 168 167 168 169 171 171 170 170 174 178 181 183 184 185 187 184 177 181 197 213 225 291 15 26 29 27 24 22 20 22 26 25
124 122 125 131 136 140 139 141 148 151 152 156 157 156 157 158 155 152 153 156 159 161 163 165 166 166 166 167 168 170 171 170 170 169 168 168 169 171 172 172 172 172 173 174 174 174 175 178 180 180 182 184 182 179 177 176 175 176 178 179 179 179 181 188 195 200 203 205 208 211 208 201 205 226 246 256 269 299 334 353 0 7 14 15 10 13 20
126 126 139 145 143 142 142 145 151 154 155 157 159 159 160 162 161 160 160 161 163 164 165 167 168 168 169 169 169 170 171 171 169 169 170 172 174 175 175 174 175 175 175 175 176 176 177 180 180 181 183 185 186 185 186 187 186 185 185 187 190 193 196 202 208 214 216 219 222 224 223 222 226 237 251 261 271 287 306 322 331 341 358 7 5 1 6
116 152 175 168 158 151 153 154 155 156 157 159 161 163 164 165 165 165 165 166 167 168 169 170 171 171 171 171 171 172 172 170 169 171 174 176 178 178 176 175 176 176 174 173 173 173 174 175 176 177 179 181 184 186 189 190 190 189 190 192 196 199 203 208 215 222 224 226 229 229 227 228 231 236 248 261 269 280 294 305 311 317 331 350 358 356 357
39 157 179 176 167 159 159 160 159 159 159 159 161 165 168 168 168 169 171 173 174 174 174 174 173 173 174 175 175 175 173 171 171 174 176 177 178 178 177 176 176 175 174 173 172 173 174 175 176 176 175 177 181 185 187 189 189 189 192 195 197 200 206 212 220 226 227 225 225 225 224 225 227 230 238 250 261 277 293 297 294 295 307 328 345 351 354
78 135 164 173 169 160 161 164 165 166 166 164 165 167 170 171 172 173 176 178 179 179 177 176 175 176 178 178 177 175 174 173 174 175 176 177 179 180 180 178 176 175 175 176 178 179 180 181 182 181 180 181 185 188 190 190 190 189 192 196 200 205 210 216 222 226 223 218 216 217 220 221 221 223 229 240 254 271 290 299 292 281 281 304 330 345 349
112 139 160 171 169 163 162 166 169 170 171 171 171 172 173 173 175 176 177 178 180 181 180 179 178 179 180 179 177 175 175 176 177 177 176 176 178 180 181 180 178 178 179 181 182 184 186 189 190 190 190 192 196 199 198 197 194 193 196 201 206 210 214 219 225 230 227 219 212 210 215 218 217 223 233 242 251 263 279 298 301 291 277 280 303 327 338
134 146 158 167 168 165 163 165 170 174 174 173 174 177 178 178 178 179 179 180 181 182 182 182 182 180 178 177 177 176 177 179 178 176 175 176 177 180 181 182 182 182 183 184 185 187 190 193 195 196 197 199 202 206 208 207 203 202 204 209 214 217 221 225 230 236 237 226 215 209 212 218 223 232 242 249 255 263 272 286 300 305 299 287 281 291 308
147 152 160 167 170 168 164 163 168 174 176 175 175 177 180 181 181 181 181 182 182 182 181 181 180 178 177 177 178 179 180 180 179 178 177 177 177 179 181 183 185 186 187 190 191 192 192 195 197 199 201 203 205 208 212 213 212 213 217 220 222 224 227 231 235 239 241 233 222 217 220 227 234 242 249 253 258 264 269 277 286 295 302 300 289 279 279
154 155 160 168 173 171 166 163 165 170 177 179 176 175 178 181 181 182 182 182 181 181 181 180 179 178 177 177 178 180 181 181 181 180 179 177 177 179 182 184 188 192 196 199 200 198 196 197 199 201 204 206 208 211 213 215 217 220 223 225 227 228 229 233 236 239 240 236 231 231 235 241 246 251 256 261 264 267 270 274 279 284 290 295 294 286 277
156 156 159 166 173 175 171 166 164 165 170 176 176 175 176 178 179 181 183 182 181 182 183 183 182 180 179 178 178 180 181 182 183 183 182 180 179 180 184 188 193 198 201 202 201 200 200 200 202 205 207 210 212 214 214 215 217 220 223 226 228 228 230 232 236 240 242 241 240 243 247 251 254 259 265 269 271 272 274 276 278 280 283 286 289 289 284
157 154 155 162 171 176 173 168 165 163 164 170 175 176 176 177 178 179 182 182 181 182 183 184 183 182 180 179 179 181 182 183 185 186 185 185 184 186 189 194 197 199 200 200 200 201 203 205 206 208 210 213 216 218 219 218 219 221 224 227 228 229 231 234 238 241 244 245 246 249 253 257 261 265 269 271 273 276 278 279 280 281 281 280 281 283 284
156 154 154 158 166 171 169 166 165 163 163 168 176 179 178 178 178 179 180 181 181 181 181 182 183 184 181 179 179 182 184 185 185 186 186 188 192 197 200 202 200 195 193 194 196 199 202 204 205 207 208 211 215 217 219 220 222 223 224 226 228 229 233 236 239 241 244 248 251 254 258 262 266 269 271 273 274 276 277 279 280 281 279 278 277 277 279
157 154 151 150 154 160 162 163 166 166 165 166 171 175 176 177 179 180 179 178 178 180 181 181 182 183 181 180 181 185 186 186 186 186 186 189 196 201 204 204 201 195 190 191 194 196 197 198 199 201 203 204 205 207 211 214 218 221 223 225 228 232 235 237 239 242 246 250 254 256 259 264 268 271 273 275 276 276 276 276 276 275 275 275 276 275 276
158 154 150 148 149 152 155 157 159 161 162 162 163 167 172 175 177 180 181 178 177 178 180 181 181 184 186 185 185 186 188 187 187 188 191 194 198 201 201 200 198 194 191 191 195 196 195 195 196 198 199 202 204 209 215 217 218 220 224 226 229 234 238 239 242 245 249 252 255 257 260 263 267 270 273 275 277 278 278 277 276 275 273 273 274 275 276
158 156 155 154 152 151 151 152 152 155 160 162 164 168 171 172 173 176 179 180 179 179 181 183 185 188 189 187 184 185 188 190 191 193 197 200 201 202 203 201 198 195 192 194 197 197 195 195 196 197 199 203 208 215 221 225 226 227 228 229 232 236 240 243 246 249 252 255 258 260 263 266 269 270 272 274 275 276 277 278 278 277 276 275 276 278 279
161 164 165 164 162 160 160 160 159 159 163 167 170 171 172 172 172 174 178 182 183 182 182 184 187 190 189 188 188 189 191 193 195 198 202 205 206 208 209 206 202 198 197 199 200 198 197 198 199 200 204 210 217 223 228 231 233 234 234 236 238 242 246 250 254 257 259 261 264 265 266 268 269 270 270 271 272 274 276 278 278 279 279 279 279 280 281
163 168 170 170 170 169 168 169 170 169 170 170 172 173 175 177 178 180 183 187 188 186 185 185 188 190 192 195 196 196 196 197 200 202 204 208 213 215 214 210 204 201 201 203 203 201 201 203 205 208 215 222 228 231 233 234 235 238 240 242 245 249 252 255 259 262 264 266 267 267 267 268 268 268 269 272 274 276 277 278 278 279 280 281 281 281 280
168 172 172 175 177 176 174 173 174 174 173 173 173 175 179 181 183 185 188 188 187 187 188 189 191 193 195 197 200 201 203 206 209 210 211 215 218 217 215 212 208 204 204 205 206 204 206 210 214 218 223 229 232 233 234 234 236 239 242 245 248 253 256 259 262 265 268 270 271 270 271 271 271 272 273 275 277 279 280 280 280 281 282 283 284 282 279
173 176 176 178 181 180 178 177 176 175 174 175 174 174 176 178 181 184 187 188 189 191 191 191 192 194 196 197 199 201 204 208 213 216 217 218 217 215 212 211 210 207 207 208 209 209 212 216 218 221 225 229 232 233 234 236 237 240 243 247 251 254 257 260 263 266 268 271 271 271 273 276 278 280 280 279 280 280 280 280 281 284 286 287 285 282 278
179 181 181 182 183 183 182 182 181 180 179 180 180 179 179 181 182 183 185 189 193 195 195 194 195 196 197 197 199 201 204 208 213 216 216 216 215 213 211 211 212 212 212 213 213 214 216 219 221 225 230 232 234 235 236 238 240 243 247 250 254 256 257 259 262 264 265 266 268 269 271 275 279 283 285 285 285 284 284 284 285 288 290 290 287 282 278
186 189 191 193 194 195 194 193 193 193 194 194 193 191 191 193 194 193 192 194 197 201 203 204 205 205 204 204 205 207 208 211 215 218 218 218 217 215 214 214 215 216 217 217 218 219 222 224 227 231 234 236 236 236 237 239 242 246 248 252 255 256 257 259 262 263 263 265 267 269 269 270 273 278 282 284 286 288 289 289 289 289 291 292 290 284 279